Temp
57 56 55 54 52 53 53 52 51 52 51 52 53 53 53 53 53 55 56 55 56 54 55 55 55 55 55 54 53 54 53 54
56 55 53 52 51 51 51 50 49 50 50 50 49 49 51 51 52 53 54 53 53 53 53 52 53 52 53 53 53 52 51 52
55 52 49 49 48 49 50 49 48 49 49 49 48 48 51 51 51 52 52 52 50 51 49 51 51 51 52 51 51 50 52 52
53 51 48 47 46 47 49 48 47 47 47 48 49 49 50 48 47 48 49 50 48 46 47 47 48 49 48 49 49 49 47 51
51 48 47 46 45 47 48 48 47 48 46 45 43 42 41 43 43 45 46 47 46 44 44 46 47 47 47 47 49 48 47 46
47 47 47 47 47 45 47 47 46 46 44 42 40 39 41 43 42 43 43 45 46 44 43 43 45 45 46 46 46 46 47 46
49 50 49 47 45 45 44 44 44 44 43 42 40 39 39 39 40 42 43 44 44 44 45 44 44 44 44 44 45 46 45 45
47 47 46 44 43 43 45 42 41 41 42 42 42 43 43 40 41 41 40 40 41 41 42 42 43 44 44 44 44 44 43 42
46 47 46 44 42 40 40 42 40 42 44 42 44 43 42 42 41 41 40 40 40 42 41 42 42 43 43 43 42 42 42 41
45 46 45 42 39 39 38 39 40 44 44 43 43 43 42 41 41 41 40 41 42 41 42 41 41 41 42 42 40 40 40 40
45 45 44 42 40 39 38 39 41 43 43 43 43 42 42 42 41 40 40 40 41 42 41 39 38 38 38 41 39 40 39 38
45 45 44 42 40 38 38 40 42 42 43 42 42 42 42 41 41 41 40 38 39 40 38 36 36 36 37 38 39 38 37 37
46 46 44 42 40 38 38 41 42 40 43 43 43 39 39 37 37 37 37 37 38 37 36 33 34 35 36 37 37 37 35 34
45 45 43 42 40 39 38 38 39 42 43 40 38 37 37 36 36 36 36 36 36 36 35 33 32 33 33 35 36 35 33 33
49 45 43 41 41 39 38 39 41 41 43 39 36 36 36 35 35 35 34 35 34 33 32 31 31 32 33 34 36 33 30 29
49 44 41 40 40 39 40 39 43 42 41 36 34 35 35 35 34 33 32 31 32 33 30 29 30 31 34 34 34 31 28 27
50 46 42 41 41 39 41 41 40 39 36 35 35 34 34 32 31 31 30 29 29 29 28 28 28 32 33 35 33 29 28 26
49 43 42 41 40 41 40 40 40 37 35 35 34 32 30 29 30 29 28 26 27 26 26 26 26 28 32 32 32 28 27 25
47 42 41 39 39 41 40 40 38 35 33 33 33 31 29 28 27 25 24 25 20 20 22 23 24 29 30 29 29 26 24 23
MSLP
1018.19 1018.74 1019.41 1019.91 1020.34 1020.44 1020.45 1020.39 1020.17 1019.82 1019.23 1018.73 1018.53 1018.43 1018.27 1018.34 1018.48 1018.33 1018.14 1018.26 1018.09 1017.80 1017.90 1017.54 1017.30 1016.85 1016.95 1016.43 1016.29 1015.96 1015.60 1015.01
1018.31 1018.97 1019.71 1020.45 1020.73 1020.90 1020.81 1020.65 1020.60 1020.42 1020.02 1019.70 1019.31 1019.22 1018.88 1018.86 1018.79 1018.71 1018.69 1018.77 1018.72 1018.78 1018.39 1018.47 1017.77 1017.05 1017.61 1016.97 1016.91 1016.49 1015.83 1015.39
1018.31 1019.31 1020.12 1020.73 1021.10 1021.18 1021.18 1021.17 1021.08 1020.89 1020.60 1020.34 1020.04 1019.61 1019.58 1019.53 1019.51 1019.53 1019.43 1019.46 1019.62 1019.46 1019.31 1018.99 1018.49 1018.42 1018.01 1017.85 1017.58 1017.17 1016.63 1016.26
1018.61 1019.57 1020.39 1020.95 1021.43 1021.51 1021.37 1021.52 1021.50 1021.39 1021.15 1020.79 1020.28 1019.96 1019.98 1020.13 1020.38 1020.40 1020.48 1020.45 1020.57 1020.46 1020.06 1019.73 1019.25 1019.19 1018.61 1018.53 1018.14 1017.79 1017.38 1016.81
1018.61 1019.70 1020.68 1021.34 1021.74 1021.61 1021.63 1021.61 1021.67 1021.75 1021.62 1021.45 1021.40 1021.41 1021.40 1021.51 1021.43 1021.28 1021.22 1021.10 1021.22 1021.21 1021.02 1020.49 1019.93 1019.60 1019.32 1019.13 1018.70 1018.33 1017.84 1017.29
1018.58 1019.61 1020.62 1021.24 1021.68 1021.99 1022.00 1021.98 1022.04 1022.12 1022.01 1022.07 1022.14 1022.08 1021.91 1021.88 1021.88 1021.79 1021.77 1021.64 1021.68 1021.61 1021.46 1021.21 1020.69 1020.19 1019.84 1019.46 1019.16 1018.75 1018.21 1017.82
1018.63 1019.56 1020.37 1021.25 1021.80 1022.00 1022.17 1022.32 1022.54 1022.45 1022.48 1022.47 1022.47 1022.45 1022.36 1022.54 1022.52 1022.37 1022.31 1022.20 1022.05 1021.96 1021.68 1021.46 1021.13 1020.60 1020.09 1019.64 1019.40 1018.97 1018.55 1018.24
1018.51 1019.46 1020.35 1021.28 1021.86 1022.36 1022.46 1022.58 1022.85 1022.78 1022.78 1022.82 1022.88 1022.67 1022.69 1022.85 1022.97 1022.94 1022.92 1022.64 1022.46 1022.31 1021.99 1021.66 1021.25 1020.89 1020.34 1019.94 1019.64 1019.40 1018.90 1018.64
1018.45 1019.36 1020.29 1021.28 1021.92 1022.41 1022.54 1022.74 1022.98 1023.00 1023.16 1023.32 1023.30 1023.09 1023.04 1023.18 1023.41 1023.48 1023.56 1023.26 1022.81 1022.55 1022.30 1021.91 1021.63 1021.27 1020.70 1020.16 1020.11 1019.74 1019.33 1018.96
1018.25 1019.26 1020.26 1021.43 1022.01 1022.39 1022.55 1022.80 1022.99 1023.11 1023.35 1023.41 1023.29 1023.22 1023.21 1023.42 1023.87 1023.95 1023.84 1023.73 1022.90 1022.70 1022.51 1022.34 1022.13 1021.75 1021.20 1020.62 1020.74 1020.40 1019.87 1019.40
1018.22 1019.14 1020.37 1021.48 1022.01 1022.41 1022.55 1022.69 1022.96 1023.37 1023.56 1023.46 1023.46 1023.35 1023.42 1023.63 1024.11 1024.32 1024.17 1023.79 1023.09 1022.70 1022.75 1022.78 1022.77 1022.30 1021.98 1021.34 1021.35 1021.02 1020.34 1019.95
1018.02 1019.10 1020.34 1021.26 1022.16 1022.50 1022.74 1022.91 1023.12 1023.50 1023.70 1023.67 1023.45 1023.32 1023.61 1024.00 1024.14 1024.25 1024.18 1023.96 1023.48 1023.16 1023.39 1023.41 1023.24 1022.97 1022.58 1022.20 1021.66 1021.42 1020.83 1020.54
1017.80 1018.70 1019.90 1020.85 1021.94 1022.48 1022.75 1023.06 1023.27 1023.47 1023.62 1023.59 1023.39 1023.36 1023.77 1024.16 1024.37 1024.42 1024.45 1024.36 1024.08 1024.04 1023.89 1024.06 1023.76 1023.57 1023.03 1023.02 1022.24 1021.85 1021.48 1021.20
1017.58 1018.55 1019.49 1020.29 1021.23 1021.94 1022.53 1022.91 1023.24 1023.14 1023.61 1023.77 1023.87 1023.86 1024.08 1024.44 1024.78 1024.82 1024.79 1024.70 1024.76 1024.77 1024.57 1024.55 1024.47 1024.19 1023.80 1023.53 1022.84 1022.58 1022.28 1022.08
1016.48 1018.04 1019.19 1020.04 1020.83 1021.58 1022.44 1022.84 1023.04 1023.16 1023.78 1024.21 1024.43 1024.53 1024.58 1024.86 1025.23 1025.31 1025.42 1025.52 1025.50 1025.62 1025.59 1025.47 1025.22 1024.80 1024.24 1023.73 1023.42 1023.48 1023.25 1023.50
1015.81 1017.25 1018.40 1019.48 1020.35 1021.15 1022.08 1022.60 1022.92 1023.26 1024.19 1024.63 1024.89 1025.10 1025.09 1025.41 1025.78 1025.85 1026.16 1026.32 1026.35 1026.01 1026.31 1026.24 1025.83 1025.39 1024.73 1024.16 1024.18 1024.20 1024.37 1024.59
1014.55 1016.28 1017.72 1018.93 1019.82 1020.78 1021.60 1022.39 1022.71 1023.65 1024.35 1024.96 1025.28 1025.53 1025.69 1026.11 1026.31 1026.49 1026.88 1027.12 1026.91 1026.84 1026.93 1026.78 1026.34 1025.80 1025.35 1024.68 1024.64 1024.97 1025.11 1025.28
1014.00 1015.62 1017.12 1018.45 1019.64 1020.33 1021.34 1022.21 1022.79 1024.11 1024.73 1025.23 1025.73 1026.02 1026.35 1026.70 1026.86 1027.19 1027.58 1027.64 1027.60 1027.65 1027.57 1027.40 1026.86 1026.49 1026.07 1025.72 1025.52 1025.85 1026.11 1026.36
1014.11 1015.55 1017.12 1018.47 1019.39 1020.45 1021.27 1022.27 1023.41 1024.41 1025.05 1025.57 1026.08 1026.46 1026.85 1027.15 1027.44 1027.76 1027.92 1028.05 1028.13 1028.20 1028.31 1028.08 1027.65 1027.11 1027.00 1026.91 1026.87 1027.01 1027.17 1026.99
Wind_Speed
10 10 9 8 7 7 7 6 8 8 6 5 5 4 4 4 5 7 10 9 12 11 8 10 8 8 7 7 8 8 6 7
10 8 9 8 8 8 7 7 8 7 6 6 4 4 2 4 5 8 10 9 10 10 8 8 9 8 8 9 7 9 5 9
11 11 9 8 6 6 7 7 7 7 6 6 4 4 5 5 6 9 8 9 11 10 10 9 10 8 9 9 9 7 5 8
13 11 8 7 5 4 4 6 7 6 7 5 6 5 6 8 9 9 11 13 13 12 10 9 9 8 7 8 8 9 6 5
13 10 8 7 4 4 6 7 7 7 7 7 8 5 4 4 5 6 8 10 11 12 12 11 9 7 8 8 8 7 6 6
12 10 9 7 6 4 5 6 7 7 8 7 5 6 4 5 5 8 9 9 10 11 10 9 9 7 7 8 8 7 5 4
12 9 10 7 6 5 5 7 7 7 7 7 7 7 6 6 6 6 6 6 6 10 10 8 8 8 7 7 7 7 6 5
12 10 8 8 8 5 4 8 7 7 7 7 7 8 9 8 7 6 7 6 6 8 9 9 8 8 8 8 7 7 7 6
11 10 9 11 9 6 6 7 7 6 6 6 6 7 5 6 7 6 5 5 6 8 8 9 10 10 9 8 6 6 7 6
11 9 8 10 8 7 7 7 6 6 4 5 5 6 7 7 7 5 4 5 6 6 8 10 10 11 10 8 6 7 7 7
11 9 9 9 8 6 7 7 6 6 4 4 4 5 6 6 5 5 4 4 5 5 8 9 10 11 12 7 5 7 7 7
10 9 11 10 8 7 6 6 6 5 5 3 4 5 6 5 4 2 2 3 5 7 10 10 11 11 12 9 8 9 11 10
10 12 13 11 10 7 6 5 5 5 4 4 4 7 7 6 5 6 6 6 6 10 10 11 11 11 12 11 10 10 12 13
9 12 12 12 11 9 6 6 6 6 4 6 6 6 7 6 6 6 7 7 7 11 12 12 12 11 11 11 10 12 13 14
15 13 12 12 11 10 7 4 4 6 7 6 6 6 7 6 6 8 10 10 10 11 12 12 11 11 11 10 10 12 14 13
15 15 14 13 12 11 8 6 4 8 7 6 6 7 7 8 8 9 9 10 10 11 11 11 10 10 10 10 11 12 13 13
19 18 18 15 13 11 10 8 6 8 7 7 8 8 8 7 8 9 9 8 9 10 10 11 12 10 21 19 13 11 13 14
19 19 17 15 13 12 8 10 10 9 9 8 7 8 7 6 7 8 6 7 9 10 10 10 11 13 21 22 19 11 11 10
16 17 16 13 13 11 10 11 11 10 8 8 6 8 7 6 6 4 4 5 4 4 9 9 10 13 23 21 18 11 9 9
Wind_Direction
110 100 84 69 50 43 44 37 17 5 354 5 10 41 53 54 40 39 35 33 26 23 12 15 8 19 360 11 359 356 335 342
118 103 85 66 40 27 30 34 24 19 359 6 3 358 21 49 47 51 45 41 30 27 16 8 10 26 353 11 352 346 341 353
116 95 81 72 60 32 36 33 37 23 9 5 0 336 40 38 33 25 37 44 42 31 16 7 10 359 7 7 360 352 340 352
118 101 97 86 80 46 46 59 51 38 27 8 4 13 22 24 21 17 24 26 34 22 15 12 7 353 7 354 1 358 346 345
115 113 105 108 99 62 39 82 58 46 30 33 36 38 29 21 19 19 16 31 26 24 10 2 4 359 1 349 350 344 339 340
120 122 126 115 100 73 57 83 63 48 50 43 39 31 23 30 20 25 16 15 19 14 7 355 2 360 352 348 341 339 329 327
125 132 129 126 101 74 63 89 66 58 56 47 38 34 24 39 26 22 18 16 14 12 4 357 351 349 349 343 332 334 7 359
140 151 143 130 112 81 89 92 73 54 58 57 44 37 47 43 33 22 21 14 19 9 3 355 358 351 353 351 1 6 9 10
153 152 145 130 119 102 67 94 86 68 64 65 55 56 53 50 36 36 25 13 25 9 3 9 8 3 3 8 8 6 13 16
141 131 133 132 123 113 94 93 94 83 69 90 70 69 64 63 41 38 34 12 25 10 21 23 13 10 2 19 13 12 21 31
142 141 126 128 124 123 110 101 92 97 89 75 78 77 78 76 62 41 30 350 357 14 45 36 20 15 5 10 22 16 28 39
154 150 135 129 128 122 121 110 113 108 101 125 119 100 110 100 91 57 77 337 357 28 54 36 30 18 10 3 30 32 33 33
161 146 140 141 140 131 124 128 132 151 164 154 98 72 73 70 63 50 40 24 33 47 59 39 30 20 17 353 36 31 33 27
162 149 152 144 138 136 138 156 176 163 158 89 79 79 75 68 61 51 42 33 39 51 43 48 26 22 13 2 37 36 35 29
170 156 151 142 136 131 134 157 138 98 88 87 80 74 76 65 61 61 52 42 35 61 48 37 31 18 13 5 46 49 39 30
172 160 148 145 142 138 144 148 144 115 106 90 88 78 68 66 67 64 61 51 45 62 51 39 30 28 20 43 53 58 46 36
173 155 148 147 142 138 147 156 117 111 104 94 84 77 69 68 71 69 68 58 56 53 56 38 37 34 32 46 57 61 55 38
170 152 148 144 145 139 144 129 116 115 108 102 96 94 83 72 79 81 77 71 67 59 52 40 39 38 40 40 51 55 52 40
148 145 139 133 130 130 125 117 106 101 94 96 101 107 100 85 78 93 91 86 83 74 58 40 31 43 45 44 43 54 52 35